Location: Olsztyn
(53.7767°N, 20.4765°E)
Time: 15:25:29
(UTC+02:00)

A-11 Canister half - Pass Details

Date: 24 January 2022
Orbit: 1513 x 1686 km, 47.2° (Epoch: 25 May)

Event Time Altitude Azimuth Distance (km) Brightness Sun altitude
Rises 20:43:57 0° 272° (W) 4,694 12.3 -40.3°
Reaches altitude 10° 20:47:05 10° 268° (W) 3,696 11.5 -40.8°
Enters shadow 20:53:36 44° 237° (WSW) 2,006 9.6 -41.6°
Maximum altitude 20:55:57 53° 196° (SSW) 1,810 - -41.9°
Drops below altitude 10° 21:04:47 10° 123° (ESE) 3,680 - -43.0°
Sets 21:07:55 0° 119° (ESE) 4,672 - -43.4°
